User: anonymous   Login
Location: Unspecified
(0.0000°N, 0.0000°E)
Time: 00:08:31
(UTC+00:00)
Language:

Intelsat 501 - Orbit

View from above orbital plane
View from above orbital plane
View from above satellite
View from above satellite

Ground track
Ground track

The orbit data is extracted from the following two-line orbital elements,

1 12474U 81050A   18112.40033333 -.00000257 +00000-0 +00000-0 0  9999
2 12474 014.8730 349.1941 0002740 284.0841 249.7939 00.98855775108235
Epoch (UTC): 22 April 2018 09:36:28
Eccentricity: 0.0002740
inclination: 14.8730°
perigee height: 36176 km
apogee height: 36199 km
right ascension of ascending node: 349.1941°
argument of perigee: 284.0841°
revolutions per day: 0.98855775
mean anomaly at epoch: 249.7939°
orbit number at epoch: 10823

The dashed part of the orbit path shows where the satellite is in the earth's shadow,  

DLR